TimeCDT,TemperatureF,Dew PointF,Humidity,Sea Level PressureIn,VisibilityMPH,Wind Direction,Wind SpeedMPH,Gust SpeedMPH,PrecipitationIn,Events,Conditions,WindDirDegrees,DateUTC
12:15 AM,44.6,37.4,76,30.16,10.0,NE,9.2,18.4,N/A,,Scattered Clouds,40,2013-04-02 05:15:00
12:35 AM,42.8,35.6,76,30.16,10.0,NE,10.4,20.7,N/A,,Scattered Clouds,50,2013-04-02 05:35:00
12:55 AM,42.8,35.6,76,30.17,10.0,NE,6.9,10.4,N/A,,Scattered Clouds,40,2013-04-02 05:55:00
1:15 AM,42.8,35.6,76,30.17,5.0,NE,10.4,-,0.01,,Haze,50,2013-04-02 06:15:00
1:35 AM,41.0,35.6,81,30.16,10.0,NE,8.1,-,0.01,,Mostly Cloudy,50,2013-04-02 06:35:00
1:55 AM,41.0,35.6,81,30.16,10.0,NE,10.4,-,0.01,,Mostly Cloudy,40,2013-04-02 06:55:00
2:15 AM,41.0,35.6,81,30.15,10.0,NE,10.4,16.1,N/A,,Scattered Clouds,50,2013-04-02 07:15:00
2:35 AM,41.0,33.8,76,30.14,10.0,NE,12.7,21.9,N/A,,Scattered Clouds,50,2013-04-02 07:35:00
2:55 AM,41.0,33.8,76,30.14,10.0,NE,12.7,21.9,N/A,,Scattered Clouds,50,2013-04-02 07:55:00
3:15 AM,41.0,33.8,76,30.15,10.0,NE,11.5,19.6,N/A,,Scattered Clouds,50,2013-04-02 08:15:00
3:35 AM,41.0,33.8,76,30.15,10.0,ENE,11.5,19.6,N/A,,Scattered Clouds,60,2013-04-02 08:35:00
3:55 AM,41.0,33.8,76,30.15,10.0,NE,10.4,16.1,N/A,,Scattered Clouds,50,2013-04-02 08:55:00
4:15 AM,41.0,33.8,76,30.16,10.0,NE,10.4,19.6,N/A,,Mostly Cloudy,50,2013-04-02 09:15:00
4:35 AM,41.0,33.8,76,30.15,10.0,NE,12.7,18.4,N/A,,Overcast,50,2013-04-02 09:35:00
4:55 AM,41.0,33.8,76,30.15,10.0,NE,12.7,17.3,N/A,,Overcast,50,2013-04-02 09:55:00
5:15 AM,41.0,33.8,76,30.15,10.0,ENE,12.7,-,N/A,,Overcast,60,2013-04-02 10:15:00
5:35 AM,41.0,33.8,76,30.16,10.0,NE,11.5,17.3,N/A,,Overcast,50,2013-04-02 10:35:00
5:55 AM,41.0,33.8,76,30.16,10.0,NE,11.5,17.3,N/A,,Overcast,50,2013-04-02 10:55:00
6:15 AM,41.0,33.8,76,30.17,10.0,ENE,11.5,16.1,N/A,,Overcast,70,2013-04-02 11:15:00
6:35 AM,39.2,33.8,81,30.17,10.0,NE,15.0,18.4,N/A,,Overcast,50,2013-04-02 11:35:00
6:55 AM,41.0,33.8,76,30.19,10.0,NE,8.1,-,N/A,,Overcast,50,2013-04-02 11:55:00
7:15 AM,39.2,33.8,81,30.20,10.0,ENE,10.4,17.3,N/A,,Mostly Cloudy,60,2013-04-02 12:15:00
7:35 AM,39.2,33.8,81,30.20,7.0,ENE,10.4,-,N/A,,Overcast,70,2013-04-02 12:35:00
7:55 AM,37.4,33.8,87,30.21,4.0,NE,10.4,19.6,0.02,,Overcast,50,2013-04-02 12:55:00
8:15 AM,37.4,35.6,93,30.21,5.0,NE,10.4,16.1,0.02,,Overcast,50,2013-04-02 13:15:00
8:35 AM,37.4,35.6,93,30.21,5.0,ENE,10.4,20.7,0.03,Snow,Light Snow,60,2013-04-02 13:35:00
8:55 AM,37.4,35.6,93,30.23,3.0,ENE,10.4,16.1,0.06,Snow,Light Snow,60,2013-04-02 13:55:00
9:35 AM,35.6,35.6,100,30.23,2.5,ENE,11.5,18.4,0.16,Snow,Light Snow,60,2013-04-02 14:35:00
9:55 AM,35.6,35.6,100,30.22,5.0,ENE,13.8,19.6,0.16,,Overcast,70,2013-04-02 14:55:00
10:15 AM,35.6,35.6,100,30.22,4.0,ENE,12.7,-,0.01,,Overcast,70,2013-04-02 15:15:00
10:35 AM,35.6,35.6,100,30.22,7.0,East,17.3,-,0.02,,Overcast,80,2013-04-02 15:35:00
10:55 AM,35.6,35.6,100,30.22,7.0,East,12.7,21.9,0.03,,Overcast,80,2013-04-02 15:55:00
11:15 AM,37.4,35.6,93,30.22,10.0,ENE,13.8,19.6,N/A,,Overcast,70,2013-04-02 16:15:00
11:35 AM,37.4,35.6,93,30.22,10.0,ENE,15.0,20.7,N/A,,Overcast,70,2013-04-02 16:35:00
11:55 AM,37.4,35.6,93,30.21,10.0,ENE,10.4,19.6,N/A,,Overcast,60,2013-04-02 16:55:00
12:15 PM,37.4,35.6,93,30.21,10.0,East,15.0,19.6,N/A,,Overcast,80,2013-04-02 17:15:00
12:35 PM,35.6,35.6,100,30.21,5.0,East,9.2,17.3,0.02,Snow,Light Snow,90,2013-04-02 17:35:00
12:55 PM,37.4,35.6,93,30.21,5.0,East,10.4,-,0.03,Snow,Light Snow,90,2013-04-02 17:55:00
1:15 PM,37.4,35.6,93,30.23,4.0,NNE,5.8,-,0.02,Snow,Light Snow,30,2013-04-02 18:15:00
1:35 PM,37.4,35.6,93,30.22,3.0,NE,9.2,-,0.05,Snow,Light Snow,50,2013-04-02 18:35:00
1:55 PM,37.4,35.6,93,30.23,5.0,NE,5.8,-,0.07,Snow,Light Snow,40,2013-04-02 18:55:00
2:15 PM,37.4,35.6,93,30.21,3.0,NE,8.1,-,0.04,Snow,Light Snow,50,2013-04-02 19:15:00
2:35 PM,37.4,35.6,93,30.19,5.0,East,12.7,17.3,0.05,Snow,Light Snow,80,2013-04-02 19:35:00
2:55 PM,37.4,35.6,93,30.19,7.0,East,10.4,-,0.06,Snow,Light Snow,80,2013-04-02 19:55:00
3:15 PM,37.4,37.4,100,30.19,7.0,ENE,5.8,-,0.01,,Overcast,70,2013-04-02 20:15:00
3:35 PM,37.4,37.4,100,30.18,10.0,ENE,8.1,-,0.01,,Overcast,70,2013-04-02 20:35:00
3:55 PM,37.4,37.4,100,30.17,7.0,ENE,8.1,-,0.01,,Overcast,70,2013-04-02 20:55:00
4:15 PM,37.4,37.4,100,30.16,7.0,ENE,11.5,-,0.01,,Overcast,70,2013-04-02 21:15:00
4:35 PM,37.4,37.4,100,30.19,5.0,NE,3.5,-,0.02,,Overcast,40,2013-04-02 21:35:00
4:55 PM,37.4,37.4,100,30.18,4.0,NNE,5.8,-,0.03,,Overcast,30,2013-04-02 21:55:00
5:15 PM,37.4,37.4,100,30.16,7.0,ENE,11.5,-,0.01,Snow,Light Snow,70,2013-04-02 22:15:00
5:35 PM,37.4,37.4,100,30.17,2.5,NE,6.9,-,0.04,Snow,Light Snow,40,2013-04-02 22:35:00
5:55 PM,37.4,37.4,100,30.18,4.0,NE,8.1,-,0.05,Snow,Light Snow,50,2013-04-02 22:55:00
6:15 PM,37.4,37.4,100,30.18,5.0,ENE,10.4,-,0.02,Snow,Light Snow,60,2013-04-02 23:15:00
6:35 PM,37.4,37.4,100,30.18,3.0,ENE,9.2,-,0.05,Snow,Light Snow,70,2013-04-02 23:35:00
6:55 PM,37.4,37.4,100,30.18,2.0,ENE,5.8,-,0.09,Snow,Light Snow,60,2013-04-02 23:55:00
7:15 PM,37.4,37.4,100,30.16,4.0,ENE,15.0,-,0.03,Snow,Light Snow,70,2013-04-03 00:15:00
7:35 PM,37.4,35.6,93,30.18,7.0,ENE,9.2,-,0.04,,Overcast,60,2013-04-03 00:35:00
7:55 PM,37.4,35.6,93,30.17,10.0,NE,10.4,-,0.04,,Overcast,50,2013-04-03 00:55:00
8:15 PM,37.4,35.6,93,30.17,10.0,ENE,10.4,16.1,N/A,,Overcast,60,2013-04-03 01:15:00
8:35 PM,37.4,35.6,93,30.16,10.0,ENE,12.7,17.3,N/A,,Overcast,70,2013-04-03 01:35:00
8:55 PM,37.4,35.6,93,30.18,10.0,ENE,8.1,-,N/A,,Overcast,60,2013-04-03 01:55:00
9:15 PM,37.4,35.6,93,30.20,10.0,East,8.1,-,N/A,,Overcast,80,2013-04-03 02:15:00
9:35 PM,37.4,35.6,93,30.20,5.0,East,5.8,-,N/A,,Overcast,80,2013-04-03 02:35:00
9:55 PM,37.4,35.6,93,30.19,3.0,ENE,6.9,-,0.01,,Overcast,70,2013-04-03 02:55:00
10:15 PM,37.4,35.6,93,30.19,5.0,ENE,10.4,-,N/A,,Overcast,70,2013-04-03 03:15:00
10:35 PM,37.4,35.6,93,30.19,7.0,ENE,10.4,-,N/A,,Overcast,70,2013-04-03 03:35:00
10:55 PM,37.4,35.6,93,30.20,10.0,ENE,9.2,-,N/A,,Overcast,70,2013-04-03 03:55:00
11:15 PM,37.4,35.6,93,30.19,10.0,ENE,9.2,16.1,N/A,,Overcast,70,2013-04-03 04:15:00
11:35 PM,37.4,35.6,93,30.18,10.0,ENE,10.4,-,N/A,,Overcast,60,2013-04-03 04:35:00
11:55 PM,37.4,35.6,93,30.18,10.0,ENE,12.7,16.1,N/A,,Overcast,70,2013-04-03 04:55:00